Probability
4 1 0 0 0 0 0 0 0 0 0 0 0 0 0 0 0 0 0 0 0 0 0 0 0 0 0 0 0 0 0 0 0 0 0 0 0 0 0 0 0 0 0
3 1 0 0 0 0 0 0 0 0 0 0 0 0 0 0 0 0 0 0 0 0 0 0 0 0 0 0 0 0 0 0 0 0 0 0 0 0 0 0 0 0 0
2 1 0 0 0 0 0 0 0 0 0 0 0 0 0 0 0 0 0 0 0 0 0 0 0 0 0 0 0 0 0 0 0 0 0 0 0 0 0 0 0 0 0
1 0 0 0 0 0 0 0 0 0 0 0 0 0 0 0 0 0 0 0 0 0 0 0 0 0 0 0 0 0 0 0 0 0 0 0 0 0 0 0 0 0 0
0 0 0 0 0 0 0 0 0 0 0 0 0 0 0 0 0 0 0 0 0 0 0 0 0 0 0 0 0 0 0 0 0 0 0 0 0 0 0 0 0 0 0
0 0 0 0 0 0 0 0 0 0 0 0 0 0 0 0 0 0 0 0 0 0 0 0 0 0 0 0 0 0 0 0 0 0 0 0 0 0 0 0 0 0 0
0 0 0 0 0 0 0 0 0 0 0 0 0 0 0 0 0 0 0 0 0 0 0 0 0 0 0 0 0 0 0 0 0 0 0 0 0 0 0 0 0 0 0
0 0 0 0 0 0 0 0 0 0 0 0 0 0 0 0 0 0 0 0 0 0 0 0 0 0 0 0 0 0 0 0 0 0 0 0 0 0 0 0 0 0 0
0 0 0 0 0 0 0 0 0 0 0 0 0 0 0 0 0 0 0 0 0 0 0 0 0 0 0 0 0 0 0 0 0 0 0 0 0 0 0 0 0 0 0
0 0 0 0 0 0 0 0 0 0 0 0 0 0 0 0 0 0 0 0 0 0 0 0 0 0 0 0 0 0 0 0 0 0 0 0 0 0 0 0 0 0 0
0 0 0 0 0 0 0 0 0 0 0 0 0 0 0 0 0 0 0 0 0 0 0 0 0 0 0 0 0 0 0 0 0 0 0 0 0 0 0 0 0 0 0
0 0 0 0 0 0 0 0 0 0 0 0 0 0 0 0 0 0 0 0 0 0 0 0 0 0 0 0 0 0 0 0 0 0 0 0 0 0 0 0 0 0 0
0 0 0 0 0 0 0 0 0 0 0 0 0 0 0 0 0 0 0 0 0 0 0 0 0 0 0 0 0 0 0 0 0 0 0 0 0 0 0 0 0 0 0
0 0 0 0 0 0 0 0 0 0 0 0 0 0 0 0 0 0 0 0 0 0 0 0 0 0 0 0 0 0 0 0 0 0 0 0 0 0 0 0 0 0 0
0 0 0 0 0 0 0 0 0 0 0 0 0 0 0 0 0 0 0 0 0 0 0 0 0 0 0 0 0 0 0 0 0 0 0 0 0 0 0 0 0 0 0
0 0 0 0 0 0 0 0 0 0 0 0 0 0 0 0 0 0 0 0 0 0 0 0 0 0 0 0 0 0 0 0 0 0 0 0 0 0 0 0 0 0 0
0 0 0 0 0 0 0 0 0 0 0 0 0 0 0 0 0 0 0 0 0 0 0 0 0 0 0 0 0 0 0 0 0 0 0 0 0 0 0 0 0 0 0
0 0 0 0 0 0 0 0 0 0 0 0 0 0 0 0 0 0 0 0 0 0 0 0 0 0 0 0 0 0 0 0 0 0 0 0 0 0 0 0 0 0 0
0 0 0 0 0 0 0 0 0 0 0 0 0 0 0 0 0 0 0 0 0 0 0 0 0 0 0 0 0 0 0 0 0 0 0 0 0 0 0 0 0 0 0
0 0 0 0 0 0 0 0 0 0 0 0 0 0 0 0 0 0 0 0 0 0 0 0 0 0 0 0 0 0 0 0 0 0 0 0 0 0 0 0 0 0 0
0 0 0 0 0 0 0 0 0 0 0 0 0 0 0 0 0 0 0 0 0 0 0 0 0 0 0 0 0 0 0 0 0 0 0 0 0 0 0 0 0 0 0
0 0 0 0 0 0 0 0 0 0 0 0 0 0 0 0 0 0 0 0 0 0 0 0 0 0 0 0 0 0 0 0 0 0 0 0 0 0 0 0 0 0 0
0 0 0 0 0 0 0 0 0 0 0 0 0 0 0 0 0 0 0 0 0 0 0 0 0 0 0 0 0 0 0 0 0 0 0 0 0 0 0 0 0 0 0
0 0 0 0 0 0 0 0 0 0 0 0 0 0 0 0 0 0 0 0 0 0 0 0 0 0 0 0 0 0 0 0 0 0 0 0 0 0 0 0 0 0 0
0 0 0 0 0 0 0 0 0 0 0 0 0 0 0 0 0 0 0 0 0 0 0 0 0 0 0 0 0 0 0 0 0 0 0 0 0 0 0 0 0 0 0
0 0 0 0 0 0 0 0 0 0 0 0 0 0 0 0 0 0 0 0 0 0 0 0 0 0 0 0 0 0 0 0 0 0 0 0 0 0 0 0 0 0 0
Wind_Speed
4 4 4 4 4 4 4 4 5 5 6 6 6 6 6 6 6 6 5 5 5 5 4 4 4 3 2 2 2 2 2 2 2 2 2 2 3 3 2 3 3 3 3
4 4 4 4 4 4 4 4 4 5 5 6 6 6 6 6 6 6 6 6 6 5 5 5 4 3 3 3 2 3 2 2 3 3 3 2 3 3 3 3 3 3 3
3 4 4 4 4 4 4 4 4 4 4 5 5 5 6 6 6 6 6 6 5 5 5 5 5 5 4 3 3 3 2 2 2 3 3 2 2 2 3 3 3 3 3
2 3 4 4 4 4 4 4 4 4 4 5 5 5 5 5 5 6 6 6 5 4 4 4 5 5 5 4 3 3 3 3 3 3 3 3 2 2 3 3 3 3 3
2 3 3 3 3 3 4 4 4 4 4 4 4 4 4 4 5 5 5 5 5 4 4 4 3 4 4 4 3 4 4 3 3 3 3 3 3 2 3 2 3 4 4
2 2 2 2 3 3 4 4 4 3 3 4 4 4 4 4 6 7 5 4 4 4 4 4 3 4 4 5 5 5 5 4 4 3 3 4 4 4 3 3 3 4 3
2 2 2 2 3 3 3 4 4 4 3 3 3 4 4 5 7 7 6 4 4 4 4 4 3 3 4 4 4 5 5 5 5 4 4 5 4 4 4 4 4 5 5
2 2 2 2 2 3 3 3 3 3 3 3 3 3 3 4 6 6 6 4 3 4 4 4 4 4 4 4 4 4 4 4 5 4 4 4 4 3 4 4 4 5 5
1 1 1 2 2 2 3 3 3 3 3 3 3 3 3 3 5 6 5 3 3 4 3 4 4 4 5 6 4 4 4 3 3 4 4 4 4 5 4 3 3 4 4
1 1 1 2 2 2 2 2 2 3 3 3 2 2 3 3 5 5 5 3 3 3 3 3 5 5 6 6 4 4 5 4 3 3 4 4 4 4 5 5 4 4 4
1 1 1 2 2 2 2 2 2 3 3 3 2 2 2 2 3 4 5 3 3 3 3 3 3 5 5 5 4 3 4 3 3 4 3 3 3 3 3 3 4 4 4
2 2 2 2 2 2 2 2 2 3 3 3 2 2 1 1 2 3 4 4 4 3 3 3 3 5 5 5 4 4 4 3 2 2 3 2 2 2 2 3 4 4 5
2 2 2 2 2 2 2 2 2 2 2 2 2 2 1 1 1 3 4 4 4 3 2 4 4 4 5 4 4 4 4 2 2 2 3 3 2 2 2 3 3 3 5
2 2 2 2 2 2 1 1 1 2 2 2 2 2 2 1 1 2 2 2 3 2 2 3 4 3 3 2 2 2 2 2 2 2 2 2 2 2 2 2 3 3 3
2 2 2 2 2 2 1 1 1 1 1 1 1 2 2 2 2 3 2 2 2 2 2 2 2 2 2 2 2 1 2 2 2 2 2 2 2 2 2 2 2 3 3
2 2 2 2 1 1 1 1 2 1 1 0 1 1 2 2 3 4 5 5 5 5 3 2 2 2 2 2 2 2 2 2 2 2 3 3 3 3 3 3 3 3 4
2 1 1 1 1 1 1 1 1 1 1 1 1 1 2 2 2 3 4 4 5 5 3 3 3 3 3 3 3 3 3 3 2 3 3 3 3 3 3 3 3 4 4
1 1 1 1 1 1 1 1 0 0 0 0 1 1 1 2 2 1 2 2 2 3 2 2 2 2 2 3 3 3 3 3 3 3 3 3 3 3 4 4 4 4 5
1 1 1 1 1 1 1 1 0 0 0 0 0 0 1 1 1 1 1 1 1 1 2 2 2 2 2 3 3 3 3 3 3 3 4 4 4 4 4 4 4 6 5
1 1 1 1 1 1 1 0 0 0 0 1 1 1 1 1 1 1 1 1 2 2 2 2 2 2 3 3 3 3 3 4 4 4 4 4 4 4 5 5 5 5 5
0 1 1 1 0 0 0 0 0 0 1 1 1 2 2 2 1 1 2 2 2 2 3 3 3 3 3 3 3 4 5 4 4 4 4 4 4 5 5 5 5 6 6
0 0 0 0 0 0 0 0 1 1 1 2 2 2 3 2 2 2 2 2 2 3 3 3 3 3 4 4 4 4 5 5 5 4 4 5 5 5 5 5 5 5 5
0 0 0 0 0 1 1 1 1 1 1 2 2 2 2 2 2 2 3 3 3 3 3 3 4 4 4 4 5 5 6 6 5 5 5 5 5 6 6 6 7 7 6
1 1 1 0 1 1 1 1 1 2 2 2 2 2 2 3 3 3 3 3 3 4 4 4 5 6 7 6 5 5 6 6 6 6 8 7 7 6 6 6 7 8 7
1 1 1 1 1 1 2 2 2 2 2 2 3 3 3 3 4 4 4 4 4 5 5 5 5 6 8 9 8 7 10 13 12 9 8 8 9 9 8 8 7 7 7
1 1 1 1 1 2 2 2 2 3 3 3 3 3 4 4 4 4 4 4 4 5 5 5 6 8 8 8 9 11 14 15 15 15 9 8 8 8 8 7 8 8 8
Wind_Direction
181 178 177 174 169 166 172 176 176 174 173 176 177 179 181 179 179 181 185 181 182 182 181 182 184 181 179 183 189 204 219 225 232 254 260 255 270 282 292 296 300 300 313
180 177 175 166 161 165 170 173 173 175 176 176 176 178 179 181 182 184 184 185 186 187 186 185 186 180 186 189 192 200 211 226 227 239 252 251 260 278 290 295 298 297 300
177 174 170 169 169 172 171 169 169 171 172 169 172 177 181 182 183 186 187 189 193 194 190 190 191 186 189 193 194 199 204 213 222 223 240 253 258 268 282 291 292 290 293
168 172 172 174 174 172 166 166 167 169 171 170 172 176 180 182 184 185 184 185 188 192 193 194 197 197 196 194 197 200 198 200 203 211 225 240 251 263 275 285 294 294 293
164 168 176 168 162 159 156 162 162 165 171 170 168 173 178 183 185 183 182 181 180 182 188 193 198 201 209 210 207 200 197 200 202 209 220 232 239 248 262 279 287 296 292
154 160 156 152 152 154 157 157 157 161 164 169 174 175 179 184 181 185 183 179 177 181 186 188 191 196 202 211 216 218 215 206 207 213 227 233 242 252 264 269 278 285 284
137 138 143 145 153 152 150 154 158 162 162 168 172 178 186 184 185 185 185 185 180 185 191 191 192 197 203 200 203 211 221 228 229 232 234 240 246 249 257 262 266 274 283
131 131 133 135 141 150 153 157 160 161 166 168 175 183 184 184 188 187 185 189 183 186 194 196 195 200 206 202 200 210 220 225 228 233 238 248 255 255 249 259 270 276 280
124 128 142 144 140 147 161 165 166 163 161 165 174 178 183 187 191 193 188 180 181 187 193 199 200 205 206 207 207 210 219 229 232 238 252 257 258 252 253 254 254 261 273
94 111 135 142 150 155 154 159 156 155 154 153 166 181 190 198 196 195 189 188 187 187 187 195 206 210 211 216 217 213 220 227 223 227 236 240 245 246 245 247 249 253 266
81 95 105 116 128 131 127 132 142 146 146 154 164 175 187 188 189 194 198 195 194 193 194 200 203 207 217 225 228 224 230 234 224 227 234 234 235 239 240 245 254 256 258
94 102 103 102 104 118 126 125 133 145 150 157 161 170 175 187 200 199 201 207 206 201 202 203 202 208 225 229 226 225 229 223 226 228 236 244 247 247 253 257 258 260 263
97 101 99 94 92 110 131 133 137 149 160 163 169 175 180 191 200 207 209 205 207 210 205 200 204 212 223 226 222 228 225 218 222 237 246 250 256 263 265 264 263 262 265
96 98 102 107 104 105 118 133 142 154 163 170 179 186 191 197 206 209 208 199 201 203 200 194 202 209 216 216 213 222 224 229 235 244 254 264 266 261 262 268 272 273 270
96 95 97 96 97 99 102 107 137 168 176 181 202 203 203 210 216 220 212 210 203 197 180 190 201 209 217 215 212 217 220 219 228 239 247 253 259 262 265 266 266 268 262
105 100 98 96 98 105 108 95 83 92 69 229 232 227 224 237 233 229 226 222 213 193 194 205 210 215 219 223 223 223 226 231 235 240 244 247 253 257 264 261 256 256 263
110 107 105 105 108 115 119 116 95 75 64 9 298 252 236 250 258 241 238 231 215 203 209 211 215 216 217 220 228 234 238 240 241 240 243 246 250 253 257 259 256 257 263
108 108 109 112 107 108 114 113 116 148 240 327 313 299 305 298 295 277 251 230 219 209 221 221 218 220 223 226 232 240 244 243 239 242 243 244 245 248 251 257 258 257 264
111 113 107 101 100 99 93 90 77 23 283 297 317 312 314 307 304 312 296 245 222 221 229 232 232 235 238 240 242 243 243 243 244 245 246 246 245 247 252 255 260 262 261
114 107 102 108 111 110 111 111 100 354 308 297 294 314 326 311 280 281 275 253 241 241 240 241 242 245 247 246 246 246 247 246 243 242 246 246 246 246 250 254 257 261 259
99 106 97 96 99 106 127 222 278 281 286 300 299 293 295 291 277 268 262 256 252 251 249 249 249 247 246 246 245 245 247 250 249 249 248 246 245 246 249 252 254 256 260
127 125 122 158 165 208 253 259 261 267 276 286 301 307 297 288 273 266 261 261 261 262 260 255 253 251 248 247 247 247 247 249 250 248 251 251 246 246 247 248 250 252 254
151 153 150 219 258 265 283 266 263 266 274 281 287 292 291 279 273 272 272 272 271 268 264 259 258 257 254 251 248 245 245 246 248 249 251 253 252 250 246 245 246 251 253
175 195 217 248 267 269 272 272 271 272 274 278 278 277 278 279 277 275 275 275 274 271 266 261 258 260 260 260 255 249 247 248 247 244 243 246 249 251 249 247 249 250 252
202 229 246 259 267 269 269 269 270 273 273 273 274 275 276 276 277 277 275 271 270 266 266 265 260 259 257 256 256 256 256 255 253 245 238 239 244 245 245 247 248 251 249
219 246 260 263 262 264 265 268 271 273 274 275 276 277 278 277 276 276 275 271 268 267 267 264 261 262 265 263 261 259 261 259 257 253 246 244 244 243 240 241 243 245 248